Time,TemperatureF,DewpointF,PressureIn,WindDirection,WindDirectionDegrees,WindSpeedMPH,WindSpeedGustMPH,Humidity,HourlyPrecipIn,Conditions,Clouds,dailyrainin,SoftwareType,DateUTC
2013-01-03 00:00:00,39.0,30.8,30.29,NE,44,0.0,0.0,72,0.00,,CLR,0.00,VWS V14.01,2013-01-03 06:00:00,
2013-01-03 00:02:00,38.0,30.5,30.29,NE,44,0.0,0.0,74,0.00,,BKN080,0.00,VWS V14.01,2013-01-03 06:02:00,
2013-01-03 00:07:00,37.8,30.3,30.29,NE,44,0.0,0.0,74,0.00,,BKN080,0.00,VWS V14.01,2013-01-03 06:07:00,
2013-01-03 00:10:00,38.3,30.8,30.29,NE,44,0.0,0.0,74,0.00,,CLR,0.00,VWS V14.01,2013-01-03 06:10:00,
2013-01-03 00:12:00,37.7,30.2,30.29,NE,44,0.0,0.0,74,0.00,,BKN080,0.00,VWS V14.01,2013-01-03 06:12:00,
2013-01-03 00:17:00,37.5,30.0,30.29,NE,44,0.0,0.0,74,0.00,,BKN080,0.00,VWS V14.01,2013-01-03 06:17:00,
2013-01-03 00:20:00,37.7,30.2,30.29,NE,44,0.0,0.0,74,0.00,,CLR,0.00,VWS V14.01,2013-01-03 06:20:00,
2013-01-03 00:22:00,37.5,30.3,30.29,NE,44,0.0,1.0,75,0.00,,BKN080,0.00,VWS V14.01,2013-01-03 06:22:00,
2013-01-03 00:27:00,37.5,30.3,30.29,NE,44,0.0,1.0,75,0.00,,BKN080,0.00,VWS V14.01,2013-01-03 06:27:00,
2013-01-03 00:30:00,37.5,30.0,30.29,NE,44,0.0,0.0,74,0.00,,CLR,0.00,VWS V14.01,2013-01-03 06:30:00,
2013-01-03 00:32:00,37.5,30.3,30.29,NE,44,0.0,0.0,75,0.00,,BKN080,0.00,VWS V14.01,2013-01-03 06:32:00,
2013-01-03 00:37:00,37.5,30.6,30.29,NE,44,0.0,0.0,76,0.00,,BKN080,0.00,VWS V14.01,2013-01-03 06:37:00,
2013-01-03 00:40:00,37.5,30.3,30.29,NE,44,0.0,1.0,75,0.00,,CLR,0.00,VWS V14.01,2013-01-03 06:40:00,
2013-01-03 00:42:00,37.5,30.6,30.29,NE,44,0.0,0.0,76,0.00,,BKN080,0.00,VWS V14.01,2013-01-03 06:42:00,
2013-01-03 00:47:00,37.5,30.6,30.29,NE,44,0.0,1.0,76,0.00,,BKN080,0.00,VWS V14.01,2013-01-03 06:47:00,
2013-01-03 00:50:00,37.5,30.6,30.29,NE,44,0.0,0.0,76,0.00,,CLR,0.00,VWS V14.01,2013-01-03 06:50:00,
2013-01-03 00:52:00,37.5,30.6,30.29,NE,44,0.0,1.0,76,0.00,,BKN080,0.00,VWS V14.01,2013-01-03 06:52:00,
2013-01-03 00:58:00,37.5,30.6,30.29,NE,44,0.0,2.0,76,0.00,,BKN080,0.00,VWS V14.01,2013-01-03 06:58:00,
2013-01-03 01:00:00,37.5,30.6,30.29,NE,44,0.0,1.0,76,0.00,,CLR,0.00,VWS V14.01,2013-01-03 07:00:00,
2013-01-03 01:03:00,37.5,30.6,30.28,NE,44,1.0,1.0,76,0.00,,OVC095,0.00,VWS V14.01,2013-01-03 07:03:00,
2013-01-03 01:08:00,37.7,30.8,30.28,NE,44,0.0,1.0,76,0.00,,OVC095,0.00,VWS V14.01,2013-01-03 07:08:00,
2013-01-03 01:10:00,37.5,30.6,30.29,NE,44,0.0,2.0,76,0.00,,CLR,0.00,VWS V14.01,2013-01-03 07:10:00,
2013-01-03 01:13:00,37.7,30.8,30.28,NE,44,0.0,0.0,76,0.00,,OVC095,0.00,VWS V14.01,2013-01-03 07:13:00,
2013-01-03 01:18:00,37.7,30.8,30.29,NE,44,0.0,1.0,76,0.00,,OVC095,0.00,VWS V14.01,2013-01-03 07:18:00,
2013-01-03 01:20:00,37.7,30.8,30.28,NE,44,0.0,1.0,76,0.00,,CLR,0.00,VWS V14.01,2013-01-03 07:20:00,
2013-01-03 01:23:00,37.7,30.8,30.29,NE,44,0.0,1.0,76,0.00,,OVC095,0.00,VWS V14.01,2013-01-03 07:23:00,
2013-01-03 01:28:00,37.8,30.9,30.29,NE,44,0.0,2.0,76,0.00,,OVC095,0.00,VWS V14.01,2013-01-03 07:28:00,
2013-01-03 01:30:00,37.7,30.8,30.29,NE,44,0.0,1.0,76,0.00,,CLR,0.00,VWS V14.01,2013-01-03 07:30:00,
2013-01-03 01:33:00,37.8,30.9,30.29,NE,44,0.0,2.0,76,0.00,,OVC095,0.00,VWS V14.01,2013-01-03 07:33:00,
2013-01-03 01:38:00,38.0,31.1,30.29,NE,44,0.0,2.0,76,0.00,,OVC095,0.00,VWS V14.01,2013-01-03 07:38:00,
2013-01-03 01:40:00,37.8,30.9,30.29,NE,44,0.0,2.0,76,0.00,,CLR,0.00,VWS V14.01,2013-01-03 07:40:00,
2013-01-03 01:43:00,38.1,30.9,30.29,NE,44,0.0,2.0,75,0.00,,OVC095,0.00,VWS V14.01,2013-01-03 07:43:00,
2013-01-03 01:48:00,38.1,30.6,30.29,NE,44,1.0,2.0,74,0.00,,OVC095,0.00,VWS V14.01,2013-01-03 07:48:00,
2013-01-03 01:50:00,38.0,31.1,30.29,NE,44,0.0,2.0,76,0.00,,CLR,0.00,VWS V14.01,2013-01-03 07:50:00,
2013-01-03 01:53:00,38.1,30.6,30.29,NE,44,0.0,1.0,74,0.00,,OVC095,0.00,VWS V14.01,2013-01-03 07:53:00,
2013-01-03 01:58:00,38.1,30.6,30.29,NE,44,0.0,2.0,74,0.00,,OVC095,0.00,VWS V14.01,2013-01-03 07:58:00,
2013-01-03 02:00:00,38.1,30.6,30.29,NE,44,0.0,2.0,74,0.00,,CLR,0.00,VWS V14.01,2013-01-03 08:00:00,
2013-01-03 02:03:00,38.1,30.6,30.29,NE,44,0.0,2.0,74,0.00,,OVC095,0.00,VWS V14.01,2013-01-03 08:03:00,
2013-01-03 02:08:00,38.0,30.5,30.29,NE,44,1.0,3.0,74,0.00,,OVC095,0.00,VWS V14.01,2013-01-03 08:08:00,
2013-01-03 02:10:00,38.1,30.6,30.29,NE,44,0.0,2.0,74,0.00,,CLR,0.00,VWS V14.01,2013-01-03 08:10:00,
2013-01-03 02:13:00,38.0,30.1,30.29,NE,44,0.0,2.0,73,0.00,,OVC095,0.00,VWS V14.01,2013-01-03 08:13:00,
2013-01-03 02:18:00,38.0,30.1,30.29,NE,44,0.0,2.0,73,0.00,,OVC095,0.00,VWS V14.01,2013-01-03 08:18:00,
2013-01-03 02:20:00,38.0,30.1,30.29,NE,44,0.0,3.0,73,0.00,,CLR,0.00,VWS V14.01,2013-01-03 08:20:00,
2013-01-03 02:23:00,37.8,29.9,30.29,NE,44,0.0,1.0,73,0.00,,OVC095,0.00,VWS V14.01,2013-01-03 08:23:00,
2013-01-03 02:28:00,37.7,29.8,30.29,NE,44,0.0,1.0,73,0.00,,OVC095,0.00,VWS V14.01,2013-01-03 08:28:00,
2013-01-03 02:30:00,37.8,29.9,30.29,NE,44,0.0,2.0,73,0.00,,CLR,0.00,VWS V14.01,2013-01-03 08:30:00,
2013-01-03 02:33:00,37.7,30.2,30.30,NE,44,0.0,0.0,74,0.00,,OVC095,0.00,VWS V14.01,2013-01-03 08:33:00,
2013-01-03 02:38:00,37.7,30.2,30.30,NE,44,0.0,0.0,74,0.00,,OVC095,0.00,VWS V14.01,2013-01-03 08:38:00,
2013-01-03 02:40:00,37.7,29.8,30.29,NE,43,0.0,1.0,73,0.00,,CLR,0.00,VWS V14.01,2013-01-03 08:40:00,
2013-01-03 02:43:00,37.7,30.2,30.30,NE,44,0.0,2.0,74,0.00,,OVC095,0.00,VWS V14.01,2013-01-03 08:43:00,
2013-01-03 02:48:00,37.5,30.0,30.30,NE,44,0.0,2.0,74,0.00,,OVC095,0.00,VWS V14.01,2013-01-03 08:48:00,
2013-01-03 02:50:00,37.7,30.2,30.30,NE,44,0.0,0.0,74,0.00,,CLR,0.00,VWS V14.01,2013-01-03 08:50:00,
2013-01-03 02:53:00,37.5,30.0,30.30,NE,44,0.0,1.0,74,0.00,,OVC095,0.00,VWS V14.01,2013-01-03 08:53:00,
2013-01-03 02:58:00,37.5,30.0,30.30,NE,44,0.0,1.0,74,0.00,,OVC095,0.00,VWS V14.01,2013-01-03 08:58:00,
2013-01-03 03:00:00,37.5,30.0,30.30,NE,44,0.0,2.0,74,0.00,,CLR,0.00,VWS V14.01,2013-01-03 09:00:00,
2013-01-03 03:03:00,37.5,30.0,30.30,NE,44,1.0,3.0,74,0.00,,OVC095,0.00,VWS V14.01,2013-01-03 09:03:00,
2013-01-03 03:08:00,37.4,29.9,30.30,NE,44,0.0,3.0,74,0.00,,OVC095,0.00,VWS V14.01,2013-01-03 09:08:00,
2013-01-03 03:10:00,37.5,30.0,30.30,NE,44,0.0,1.0,74,0.00,,CLR,0.00,VWS V14.01,2013-01-03 09:10:00,
2013-01-03 03:13:00,37.4,29.9,30.30,NE,44,0.0,1.0,74,0.00,,OVC095,0.00,VWS V14.01,2013-01-03 09:13:00,
2013-01-03 03:18:00,37.4,29.9,30.31,NE,43,0.0,1.0,74,0.00,,OVC095,0.00,VWS V14.01,2013-01-03 09:18:00,
2013-01-03 03:20:00,37.4,29.9,30.30,NE,44,0.0,3.0,74,0.00,,CLR,0.00,VWS V14.01,2013-01-03 09:20:00,
2013-01-03 03:23:00,37.4,29.9,30.31,NE,43,1.0,1.0,74,0.00,,OVC095,0.00,VWS V14.01,2013-01-03 09:23:00,
2013-01-03 03:28:00,37.4,29.9,30.31,NE,53,0.0,4.0,74,0.00,,OVC095,0.00,VWS V14.01,2013-01-03 09:28:00,
2013-01-03 03:30:00,37.4,29.9,30.31,NE,44,0.0,1.0,74,0.00,,CLR,0.00,VWS V14.01,2013-01-03 09:30:00,
2013-01-03 03:33:00,37.4,29.9,30.31,NE,53,0.0,0.0,74,0.00,,OVC095,0.00,VWS V14.01,2013-01-03 09:33:00,
2013-01-03 03:38:00,37.4,29.9,30.31,NE,53,0.0,1.0,74,0.00,,OVC095,0.00,VWS V14.01,2013-01-03 09:38:00,
2013-01-03 03:40:00,37.4,29.9,30.31,NE,53,0.0,4.0,74,0.00,,CLR,0.00,VWS V14.01,2013-01-03 09:40:00,
2013-01-03 03:43:00,37.5,30.0,30.31,NE,53,0.0,0.0,74,0.00,,OVC095,0.00,VWS V14.01,2013-01-03 09:43:00,
2013-01-03 03:48:00,37.5,30.0,30.32,NE,53,0.0,0.0,74,0.00,,OVC095,0.00,VWS V14.01,2013-01-03 09:48:00,
2013-01-03 03:50:00,37.4,29.9,30.31,NE,53,0.0,1.0,74,0.00,,CLR,0.00,VWS V14.01,2013-01-03 09:50:00,
2013-01-03 03:53:00,37.5,29.6,30.32,NE,53,0.0,2.0,73,0.00,,OVC095,0.00,VWS V14.01,2013-01-03 09:53:00,
2013-01-03 03:58:00,37.5,29.3,30.32,NE,53,0.0,2.0,72,0.00,,OVC095,0.00,VWS V14.01,2013-01-03 09:58:00,
2013-01-03 04:00:00,37.5,30.0,30.32,NE,53,0.0,0.0,74,0.00,,CLR,0.00,VWS V14.01,2013-01-03 10:00:00,
2013-01-03 04:03:00,37.7,29.5,30.32,NE,53,0.0,1.0,72,0.00,,OVC090,0.00,VWS V14.01,2013-01-03 10:03:00,
2013-01-03 04:08:00,37.7,29.5,30.32,NE,53,1.0,1.0,72,0.00,,OVC090,0.00,VWS V14.01,2013-01-03 10:08:00,
2013-01-03 04:10:00,37.5,29.3,30.32,NE,53,0.0,2.0,72,0.00,,CLR,0.00,VWS V14.01,2013-01-03 10:10:00,
2013-01-03 04:13:00,37.7,29.2,30.32,NE,53,0.0,3.0,71,0.00,,OVC090,0.00,VWS V14.01,2013-01-03 10:13:00,
2013-01-03 04:18:00,37.7,28.8,30.33,NE,53,0.0,3.0,70,0.00,,OVC090,0.00,VWS V14.01,2013-01-03 10:18:00,
2013-01-03 04:20:00,37.7,29.5,30.32,NE,53,0.0,1.0,72,0.00,,CLR,0.00,VWS V14.01,2013-01-03 10:20:00,
2013-01-03 04:23:00,37.7,29.2,30.33,NE,53,0.0,1.0,71,0.00,,OVC090,0.00,VWS V14.01,2013-01-03 10:23:00,
2013-01-03 04:28:00,37.7,29.2,30.33,NE,53,2.0,2.0,71,0.00,,OVC090,0.00,VWS V14.01,2013-01-03 10:28:00,
2013-01-03 04:30:00,37.7,28.8,30.33,NE,53,0.0,3.0,70,0.00,,CLR,0.00,VWS V14.01,2013-01-03 10:30:00,
2013-01-03 04:33:00,37.5,29.0,30.33,NE,53,0.0,1.0,71,0.00,,OVC090,0.00,VWS V14.01,2013-01-03 10:33:00,
2013-01-03 04:38:00,37.5,29.0,30.33,NE,53,0.0,2.0,71,0.00,,OVC090,0.00,VWS V14.01,2013-01-03 10:38:00,
2013-01-03 04:40:00,37.7,29.2,30.33,NE,53,0.0,3.0,71,0.00,,CLR,0.00,VWS V14.01,2013-01-03 10:40:00,
2013-01-03 04:43:00,37.5,29.0,30.33,NE,53,0.0,1.0,71,0.00,,OVC090,0.00,VWS V14.01,2013-01-03 10:43:00,
2013-01-03 04:48:00,37.5,29.0,30.33,NE,53,0.0,2.0,71,0.00,,OVC090,0.00,VWS V14.01,2013-01-03 10:48:00,
2013-01-03 04:50:00,37.5,29.0,30.33,NE,53,0.0,2.0,71,0.00,,CLR,0.00,VWS V14.01,2013-01-03 10:50:00,
2013-01-03 04:53:00,37.5,29.0,30.33,NE,53,0.0,2.0,71,0.00,,OVC090,0.00,VWS V14.01,2013-01-03 10:53:00,
2013-01-03 04:58:00,37.7,29.5,30.33,NE,53,2.0,2.0,72,0.00,,OVC090,0.00,VWS V14.01,2013-01-03 10:58:00,
2013-01-03 05:00:00,37.5,29.0,30.33,NE,53,0.0,2.0,71,0.00,,CLR,0.00,VWS V14.01,2013-01-03 11:00:00,
2013-01-03 05:03:00,37.7,29.5,30.34,NE,53,0.0,3.0,72,0.00,,OVC090,0.00,VWS V14.01,2013-01-03 11:03:00,
2013-01-03 05:08:00,37.7,29.2,30.34,NNW,331,0.0,3.0,71,0.00,,OVC090,0.00,VWS V14.01,2013-01-03 11:08:00,
2013-01-03 05:10:00,37.5,29.3,30.33,NE,53,1.0,2.0,72,0.00,,CLR,0.00,VWS V14.01,2013-01-03 11:10:00,
2013-01-03 05:13:00,37.7,29.2,30.34,NNW,331,1.0,2.0,71,0.00,,OVC090,0.00,VWS V14.01,2013-01-03 11:13:00,
2013-01-03 05:18:00,37.7,29.2,30.34,NNW,332,1.0,2.0,71,0.00,,OVC090,0.00,VWS V14.01,2013-01-03 11:18:00,
2013-01-03 05:20:00,37.7,29.2,30.34,NNW,331,1.0,3.0,71,0.00,,CLR,0.00,VWS V14.01,2013-01-03 11:20:00,
2013-01-03 05:23:00,37.7,29.2,30.34,NNW,332,0.0,2.0,71,0.00,,OVC090,0.00,VWS V14.01,2013-01-03 11:23:00,
2013-01-03 05:28:00,37.7,29.5,30.34,NNW,332,0.0,2.0,72,0.00,,OVC090,0.00,VWS V14.01,2013-01-03 11:28:00,
2013-01-03 05:30:00,37.7,29.2,30.34,NNW,332,0.0,2.0,71,0.00,,CLR,0.00,VWS V14.01,2013-01-03 11:30:00,
2013-01-03 05:33:00,37.7,29.2,30.33,NNW,332,0.0,2.0,71,0.00,,OVC090,0.00,VWS V14.01,2013-01-03 11:33:00,
2013-01-03 05:38:00,37.7,29.5,30.33,NNW,332,0.0,2.0,72,0.00,,OVC090,0.00,VWS V14.01,2013-01-03 11:38:00,
2013-01-03 05:40:00,37.7,29.5,30.34,NNW,332,0.0,2.0,72,0.00,,CLR,0.00,VWS V14.01,2013-01-03 11:40:00,
2013-01-03 05:43:00,37.7,29.5,30.33,NNW,332,0.0,1.0,72,0.00,,OVC090,0.00,VWS V14.01,2013-01-03 11:43:00,
2013-01-03 05:48:00,37.7,29.5,30.33,NNW,332,0.0,2.0,72,0.00,,OVC090,0.00,VWS V14.01,2013-01-03 11:48:00,
2013-01-03 05:50:00,37.7,29.5,30.33,NNW,332,1.0,2.0,72,0.00,,CLR,0.00,VWS V14.01,2013-01-03 11:50:00,
2013-01-03 05:53:00,37.8,29.6,30.33,NNW,332,0.0,0.0,72,0.00,,OVC090,0.00,VWS V14.01,2013-01-03 11:53:00,
2013-01-03 05:58:00,37.8,29.6,30.33,NNW,332,0.0,1.0,72,0.00,,OVC090,0.00,VWS V14.01,2013-01-03 11:58:00,
2013-01-03 06:00:00,37.7,29.5,30.33,NNW,332,0.0,2.0,72,0.00,,CLR,0.00,VWS V14.01,2013-01-03 12:00:00,
2013-01-03 06:03:00,37.8,29.6,30.32,NNW,332,0.0,2.0,72,0.00,,OVC090,0.00,VWS V14.01,2013-01-03 12:03:00,
2013-01-03 06:08:00,37.8,29.6,30.32,NE,49,1.0,4.0,72,0.00,,OVC090,0.00,VWS V14.01,2013-01-03 12:08:00,
2013-01-03 06:10:00,37.8,29.6,30.33,NNW,332,1.0,1.0,72,0.00,,CLR,0.00,VWS V14.01,2013-01-03 12:10:00,
2013-01-03 06:13:00,37.8,29.3,30.32,NE,49,0.0,2.0,71,0.00,,OVC090,0.00,VWS V14.01,2013-01-03 12:13:00,
2013-01-03 06:18:00,37.7,29.2,30.32,NE,49,0.0,2.0,71,0.00,,OVC090,0.00,VWS V14.01,2013-01-03 12:18:00,
2013-01-03 06:20:00,37.8,29.6,30.32,NE,49,0.0,4.0,72,0.00,,CLR,0.00,VWS V14.01,2013-01-03 12:20:00,
2013-01-03 06:23:00,37.7,29.2,30.32,NE,49,1.0,2.0,71,0.00,,OVC090,0.00,VWS V14.01,2013-01-03 12:23:00,
2013-01-03 06:28:00,37.7,29.2,30.32,NE,49,0.0,2.0,71,0.00,,OVC090,0.00,VWS V14.01,2013-01-03 12:28:00,
2013-01-03 06:30:00,37.7,29.2,30.32,NE,49,0.0,2.0,71,0.00,,CLR,0.00,VWS V14.01,2013-01-03 12:30:00,
2013-01-03 06:33:00,37.7,29.2,30.33,NE,49,0.0,3.0,71,0.00,,OVC090,0.00,VWS V14.01,2013-01-03 12:33:00,
2013-01-03 06:38:00,37.7,29.2,30.33,NE,49,1.0,3.0,71,0.00,,OVC090,0.00,VWS V14.01,2013-01-03 12:38:00,
2013-01-03 06:40:00,37.7,29.2,30.32,NE,49,0.0,2.0,71,0.00,,CLR,0.00,VWS V14.01,2013-01-03 12:40:00,
2013-01-03 06:43:00,37.7,28.8,30.33,North,9,0.0,3.0,70,0.00,,OVC090,0.00,VWS V14.01,2013-01-03 12:43:00,
2013-01-03 06:48:00,37.7,28.8,30.33,North,11,1.0,3.0,70,0.00,,OVC090,0.00,VWS V14.01,2013-01-03 12:48:00,
2013-01-03 06:50:00,37.7,29.2,30.33,NE,46,2.0,3.0,71,0.00,,CLR,0.00,VWS V14.01,2013-01-03 12:50:00,
2013-01-03 06:53:00,37.7,28.8,30.33,North,11,2.0,2.0,70,0.00,,OVC090,0.00,VWS V14.01,2013-01-03 12:53:00,
2013-01-03 06:58:00,37.7,29.2,30.33,North,11,0.0,2.0,71,0.00,,OVC090,0.00,VWS V14.01,2013-01-03 12:58:00,
2013-01-03 07:00:00,37.7,28.8,30.33,North,11,0.0,3.0,70,0.00,,CLR,0.00,VWS V14.01,2013-01-03 13:00:00,
2013-01-03 07:03:00,37.7,29.2,30.35,North,11,0.0,1.0,71,0.00,,OVC100,0.00,VWS V14.01,2013-01-03 13:03:00,
2013-01-03 07:08:00,37.7,29.5,30.35,North,11,2.0,2.0,72,0.00,,OVC100,0.00,VWS V14.01,2013-01-03 13:08:00,
2013-01-03 07:10:00,37.7,29.2,30.33,North,11,0.0,2.0,71,0.00,,CLR,0.00,VWS V14.01,2013-01-03 13:10:00,
2013-01-03 07:13:00,37.7,29.2,30.35,North,11,0.0,3.0,71,0.00,,OVC100,0.00,VWS V14.01,2013-01-03 13:13:00,
2013-01-03 07:18:00,37.7,29.2,30.35,NNE,13,0.0,3.0,71,0.00,,OVC100,0.00,VWS V14.01,2013-01-03 13:18:00,
2013-01-03 07:20:00,37.7,29.5,30.35,North,11,1.0,2.0,72,0.00,,CLR,0.00,VWS V14.01,2013-01-03 13:20:00,
2013-01-03 07:23:00,37.7,29.2,30.35,ENE,57,1.0,2.0,71,0.00,,OVC100,0.00,VWS V14.01,2013-01-03 13:23:00,
2013-01-03 07:28:00,37.7,29.2,30.35,ENE,57,2.0,2.0,71,0.00,,OVC100,0.00,VWS V14.01,2013-01-03 13:28:00,
2013-01-03 07:30:00,37.7,29.2,30.35,NNE,13,0.0,3.0,71,0.00,,CLR,0.00,VWS V14.01,2013-01-03 13:30:00,
2013-01-03 07:33:00,37.7,29.2,30.35,NE,54,2.0,3.0,71,0.00,,OVC100,0.00,VWS V14.01,2013-01-03 13:33:00,
2013-01-03 07:38:00,37.7,29.2,30.35,NE,53,0.0,3.0,71,0.00,,OVC100,0.00,VWS V14.01,2013-01-03 13:38:00,
2013-01-03 07:40:00,37.7,29.2,30.35,ENE,57,1.0,2.0,71,0.00,,CLR,0.00,VWS V14.01,2013-01-03 13:40:00,
2013-01-03 07:43:00,37.7,29.2,30.35,North,5,0.0,3.0,71,0.00,,OVC100,0.00,VWS V14.01,2013-01-03 13:43:00,
2013-01-03 07:48:00,37.7,28.8,30.35,North,5,0.0,3.0,70,0.00,,OVC100,0.00,VWS V14.01,2013-01-03 13:48:00,
2013-01-03 07:50:00,37.7,29.2,30.35,NE,53,2.0,3.0,71,0.00,,CLR,0.00,VWS V14.01,2013-01-03 13:50:00,
2013-01-03 07:53:00,37.7,28.8,30.35,North,5,0.0,3.0,70,0.00,,OVC100,0.00,VWS V14.01,2013-01-03 13:53:00,
2013-01-03 07:58:00,37.8,28.9,30.35,North,9,0.0,3.0,70,0.00,,OVC100,0.00,VWS V14.01,2013-01-03 13:58:00,
2013-01-03 08:00:00,37.7,28.8,30.35,North,5,1.0,3.0,70,0.00,,CLR,0.00,VWS V14.01,2013-01-03 14:00:00,
2013-01-03 08:03:00,37.8,28.9,30.36,North,9,0.0,2.0,70,0.00,,OVC100,0.00,VWS V14.01,2013-01-03 14:03:00,
2013-01-03 08:08:00,38.0,28.8,30.36,NE,55,2.0,3.0,69,0.00,,OVC100,0.00,VWS V14.01,2013-01-03 14:08:00,
2013-01-03 08:10:00,37.8,28.9,30.35,North,9,0.0,3.0,70,0.00,,CLR,0.00,VWS V14.01,2013-01-03 14:10:00,
2013-01-03 08:13:00,38.1,28.8,30.36,NE,55,0.0,2.0,69,0.00,,OVC100,0.00,VWS V14.01,2013-01-03 14:13:00,
2013-01-03 08:18:00,38.3,29.0,30.37,NE,53,0.0,2.0,69,0.00,,OVC100,0.00,VWS V14.01,2013-01-03 14:18:00,
2013-01-03 08:20:00,38.0,28.8,30.36,NE,55,1.0,3.0,69,0.00,,CLR,0.00,VWS V14.01,2013-01-03 14:20:00,
2013-01-03 08:23:00,38.4,29.1,30.37,NE,52,2.0,2.0,69,0.00,,OVC100,0.00,VWS V14.01,2013-01-03 14:23:00,
2013-01-03 08:28:00,38.6,29.0,30.37,North,11,3.0,4.0,68,0.00,,OVC100,0.00,VWS V14.01,2013-01-03 14:28:00,
2013-01-03 08:30:00,38.3,29.0,30.37,NE,53,0.0,2.0,69,0.00,,CLR,0.00,VWS V14.01,2013-01-03 14:30:00,
2013-01-03 08:33:00,38.7,28.7,30.38,North,355,1.0,3.0,67,0.00,,OVC100,0.00,VWS V14.01,2013-01-03 14:33:00,
2013-01-03 08:38:00,38.8,28.8,30.38,NNW,344,1.0,3.0,67,0.00,,OVC100,0.00,VWS V14.01,2013-01-03 14:38:00,
2013-01-03 08:40:00,38.6,29.0,30.37,NNE,15,1.0,4.0,68,0.00,,CLR,0.00,VWS V14.01,2013-01-03 14:40:00,
2013-01-03 08:43:00,38.8,28.4,30.38,NE,37,2.0,4.0,66,0.00,,OVC100,0.00,VWS V14.01,2013-01-03 14:43:00,
2013-01-03 08:48:00,39.0,28.6,30.38,North,10,1.0,4.0,66,0.00,,OVC100,0.00,VWS V14.01,2013-01-03 14:48:00,
2013-01-03 08:50:00,38.8,28.8,30.38,NNW,344,0.0,3.0,67,0.00,,CLR,0.00,VWS V14.01,2013-01-03 14:50:00,
2013-01-03 08:53:00,39.0,28.6,30.38,ENE,78,0.0,2.0,66,0.00,,OVC100,0.00,VWS V14.01,2013-01-03 14:53:00,
2013-01-03 08:58:00,39.0,28.6,30.38,ENE,59,0.0,4.0,66,0.00,,OVC100,0.00,VWS V14.01,2013-01-03 14:58:00,
2013-01-03 09:00:00,39.0,28.6,30.38,NE,36,1.0,4.0,66,0.00,,CLR,0.00,VWS V14.01,2013-01-03 15:00:00,
2013-01-03 09:03:00,39.1,29.1,30.39,NE,44,1.0,5.0,67,0.00,,OVC085,0.00,VWS V14.01,2013-01-03 15:03:00,
2013-01-03 09:08:00,39.1,29.5,30.39,North,9,1.0,5.0,68,0.00,,OVC085,0.00,VWS V14.01,2013-01-03 15:08:00,
2013-01-03 09:10:00,39.0,28.6,30.38,ENE,59,0.0,4.0,66,0.00,,CLR,0.00,VWS V14.01,2013-01-03 15:10:00,
2013-01-03 09:13:00,39.1,29.1,30.39,NNE,18,2.0,5.0,67,0.00,,OVC085,0.00,VWS V14.01,2013-01-03 15:13:00,
2013-01-03 09:18:00,39.3,29.3,30.40,NNE,18,1.0,5.0,67,0.00,,OVC085,0.00,VWS V14.01,2013-01-03 15:18:00,
2013-01-03 09:20:00,39.1,29.4,30.39,North,9,1.0,5.0,68,0.00,,CLR,0.00,VWS V14.01,2013-01-03 15:20:00,
2013-01-03 09:23:00,39.4,29.7,30.40,East,95,2.0,2.0,68,0.00,,OVC085,0.00,VWS V14.01,2013-01-03 15:23:00,
2013-01-03 09:28:00,39.3,28.9,30.40,ENE,63,1.0,4.0,66,0.00,,OVC085,0.00,VWS V14.01,2013-01-03 15:28:00,
2013-01-03 09:30:00,39.3,29.3,30.40,NNE,18,0.0,5.0,67,0.00,,CLR,0.00,VWS V14.01,2013-01-03 15:30:00,
2013-01-03 09:33:00,39.3,29.3,30.40,NNE,30,0.0,3.0,67,0.00,,OVC085,0.00,VWS V14.01,2013-01-03 15:33:00,
2013-01-03 09:38:00,39.3,29.3,30.40,NE,56,0.0,3.0,67,0.00,,OVC085,0.00,VWS V14.01,2013-01-03 15:38:00,
2013-01-03 09:40:00,39.3,29.3,30.40,ENE,60,0.0,4.0,67,0.00,,CLR,0.00,VWS V14.01,2013-01-03 15:40:00,
2013-01-03 09:43:00,39.4,29.7,30.40,NE,56,0.0,2.0,68,0.00,,OVC085,0.00,VWS V14.01,2013-01-03 15:43:00,
2013-01-03 09:48:00,39.4,30.1,30.40,NE,55,0.0,2.0,69,0.00,,OVC085,0.00,VWS V14.01,2013-01-03 15:48:00,
2013-01-03 09:50:00,39.3,29.6,30.40,NE,56,0.0,3.0,68,0.00,,CLR,0.00,VWS V14.01,2013-01-03 15:50:00,
2013-01-03 09:53:00,39.6,29.6,30.40,NE,52,0.0,4.0,67,0.00,,OVC085,0.00,VWS V14.01,2013-01-03 15:53:00,
2013-01-03 09:58:00,39.6,29.9,30.40,North,355,1.0,4.0,68,0.00,,OVC085,0.00,VWS V14.01,2013-01-03 15:58:00,
2013-01-03 10:00:00,39.4,30.1,30.40,NE,44,2.0,2.0,69,0.00,,CLR,0.00,VWS V14.01,2013-01-03 16:00:00,
2013-01-03 10:03:00,39.6,29.9,30.41,NNE,25,1.0,2.0,68,0.01,,OVC085,0.01,VWS V14.01,2013-01-03 16:03:00,
2013-01-03 10:08:00,39.7,30.0,30.41,NNE,24,2.0,3.0,68,0.01,,OVC085,0.01,VWS V14.01,2013-01-03 16:08:00,
2013-01-03 10:10:00,39.6,29.9,30.40,North,355,0.0,4.0,68,0.01,,CLR,0.01,VWS V14.01,2013-01-03 16:10:00,
2013-01-03 10:13:00,39.7,29.7,30.41,NNE,25,1.0,3.0,67,0.01,,OVC085,0.01,VWS V14.01,2013-01-03 16:13:00,
2013-01-03 10:18:00,39.8,30.1,30.41,NNE,30,2.0,3.0,68,0.01,,OVC085,0.01,VWS V14.01,2013-01-03 16:18:00,
2013-01-03 10:20:00,39.7,29.7,30.41,NNE,25,1.0,3.0,67,0.01,,CLR,0.01,VWS V14.01,2013-01-03 16:20:00,
2013-01-03 10:23:00,39.8,29.8,30.41,North,360,1.0,3.0,67,0.01,,OVC085,0.01,VWS V14.01,2013-01-03 16:23:00,
2013-01-03 10:28:00,40.0,29.9,30.41,North,360,0.0,3.0,67,0.01,,OVC085,0.01,VWS V14.01,2013-01-03 16:28:00,
2013-01-03 10:30:00,39.8,29.8,30.41,ENE,70,3.0,3.0,67,0.01,,CLR,0.01,VWS V14.01,2013-01-03 16:30:00,
2013-01-03 10:33:00,40.1,29.7,30.42,ENE,61,0.0,3.0,66,0.01,,OVC085,0.01,VWS V14.01,2013-01-03 16:33:00,
2013-01-03 10:38:00,40.4,30.3,30.42,NNE,22,0.0,3.0,67,0.01,,OVC085,0.01,VWS V14.01,2013-01-03 16:38:00,
2013-01-03 10:40:00,40.0,29.9,30.41,North,360,0.0,3.0,67,0.01,,CLR,0.01,VWS V14.01,2013-01-03 16:40:00,
2013-01-03 10:43:00,40.7,30.6,30.42,NNE,22,1.0,2.0,67,0.01,,OVC085,0.01,VWS V14.01,2013-01-03 16:43:00,
2013-01-03 10:48:00,41.0,30.5,30.42,NNE,23,0.0,3.0,66,0.01,,OVC085,0.01,VWS V14.01,2013-01-03 16:48:00,
2013-01-03 10:50:00,40.4,30.3,30.42,NNE,22,1.0,3.0,67,0.01,,CLR,0.01,VWS V14.01,2013-01-03 16:50:00,
2013-01-03 10:53:00,41.3,30.1,30.42,NNE,22,0.0,3.0,64,0.01,,OVC085,0.01,VWS V14.01,2013-01-03 16:53:00,
2013-01-03 10:58:00,41.6,30.3,30.42,NE,48,0.0,3.0,64,0.01,,OVC085,0.01,VWS V14.01,2013-01-03 16:58:00,
2013-01-03 11:00:00,41.0,30.1,30.42,NNE,23,1.0,3.0,65,0.01,,CLR,0.01,VWS V14.01,2013-01-03 17:00:00,
2013-01-03 11:03:00,41.7,30.0,30.42,North,355,1.0,5.0,63,0.00,,OVC075,0.01,VWS V14.01,2013-01-03 17:03:00,
2013-01-03 11:08:00,41.8,29.8,30.42,North,360,0.0,5.0,62,0.00,,OVC075,0.01,VWS V14.01,2013-01-03 17:08:00,
2013-01-03 11:10:00,41.6,30.3,30.42,NNE,24,2.0,3.0,64,0.01,,CLR,0.01,VWS V14.01,2013-01-03 17:10:00,
2013-01-03 11:13:00,41.8,29.8,30.42,NNE,28,1.0,4.0,62,0.00,,OVC075,0.01,VWS V14.01,2013-01-03 17:13:00,
2013-01-03 11:18:00,42.0,29.5,30.41,NNE,28,2.0,5.0,61,0.00,,OVC075,0.01,VWS V14.01,2013-01-03 17:18:00,
2013-01-03 11:20:00,41.8,29.8,30.42,North,360,0.0,5.0,62,0.00,,CLR,0.01,VWS V14.01,2013-01-03 17:20:00,
2013-01-03 11:23:00,42.1,30.0,30.41,NNE,28,2.0,3.0,62,0.00,,OVC075,0.01,VWS V14.01,2013-01-03 17:23:00,
2013-01-03 11:28:00,42.3,29.8,30.41,NNE,28,2.0,3.0,61,0.00,,OVC075,0.01,VWS V14.01,2013-01-03 17:28:00,
2013-01-03 11:30:00,42.0,29.1,30.41,NNE,28,2.0,5.0,60,0.00,,CLR,0.01,VWS V14.01,2013-01-03 17:30:00,
2013-01-03 11:33:00,42.4,29.5,30.41,North,355,3.0,5.0,60,0.00,,OVC075,0.01,VWS V14.01,2013-01-03 17:33:00,
2013-01-03 11:38:00,42.6,29.3,30.41,North,355,0.0,5.0,59,0.00,,OVC075,0.01,VWS V14.01,2013-01-03 17:38:00,
2013-01-03 11:40:00,42.3,29.8,30.41,NNE,28,1.0,3.0,61,0.00,,CLR,0.01,VWS V14.01,2013-01-03 17:40:00,
2013-01-03 11:43:00,42.6,29.3,30.41,NNW,338,1.0,4.0,59,0.00,,OVC075,0.01,VWS V14.01,2013-01-03 17:43:00,
2013-01-03 11:48:00,42.7,29.0,30.40,North,5,1.0,4.0,58,0.00,,OVC075,0.01,VWS V14.01,2013-01-03 17:48:00,
2013-01-03 11:50:00,42.6,29.3,30.41,North,355,2.0,5.0,59,0.00,,CLR,0.01,VWS V14.01,2013-01-03 17:50:00,
2013-01-03 11:53:00,42.7,29.4,30.40,North,5,1.0,3.0,59,0.00,,OVC075,0.01,VWS V14.01,2013-01-03 17:53:00,
2013-01-03 11:58:00,42.8,29.9,30.40,NNE,17,0.0,3.0,60,0.00,,OVC075,0.01,VWS V14.01,2013-01-03 17:58:00,
2013-01-03 12:00:00,42.7,29.0,30.40,North,5,2.0,4.0,58,0.00,,CLR,0.01,VWS V14.01,2013-01-03 18:00:00,
2013-01-03 12:03:00,43.0,29.7,30.40,NNE,17,0.0,3.0,59,0.00,,OVC090,0.01,VWS V14.01,2013-01-03 18:03:00,
2013-01-03 12:08:00,43.3,29.5,30.40,ENE,66,3.0,3.0,58,0.00,,OVC090,0.01,VWS V14.01,2013-01-03 18:08:00,
2013-01-03 12:10:00,42.8,29.5,30.40,NNE,17,3.0,3.0,59,0.00,,CLR,0.01,VWS V14.01,2013-01-03 18:10:00,
2013-01-03 12:13:00,43.7,31.1,30.40,NE,49,1.0,3.0,61,0.00,,OVC090,0.01,VWS V14.01,2013-01-03 18:13:00,
2013-01-03 12:18:00,44.0,29.3,30.39,North,360,2.0,4.0,56,0.00,,OVC090,0.01,VWS V14.01,2013-01-03 18:18:00,
2013-01-03 12:20:00,43.4,29.6,30.40,ENE,66,0.0,3.0,58,0.00,,CLR,0.01,VWS V14.01,2013-01-03 18:20:00,
2013-01-03 12:23:00,44.0,28.9,30.39,NNW,338,1.0,4.0,55,0.00,,OVC090,0.01,VWS V14.01,2013-01-03 18:23:00,
2013-01-03 12:28:00,43.8,28.7,30.39,North,355,0.0,4.0,55,0.00,,OVC090,0.01,VWS V14.01,2013-01-03 18:28:00,
2013-01-03 12:30:00,44.0,29.3,30.39,North,360,2.0,4.0,56,0.00,,CLR,0.01,VWS V14.01,2013-01-03 18:30:00,
2013-01-03 12:33:00,43.8,29.1,30.38,NE,34,1.0,3.0,56,0.00,,OVC090,0.01,VWS V14.01,2013-01-03 18:33:00,
2013-01-03 12:38:00,44.0,28.4,30.38,North,355,1.0,4.0,54,0.00,,OVC090,0.01,VWS V14.01,2013-01-03 18:38:00,
2013-01-03 12:40:00,43.8,28.7,30.39,North,355,0.0,4.0,55,0.00,,CLR,0.01,VWS V14.01,2013-01-03 18:40:00,
2013-01-03 12:43:00,43.8,28.2,30.38,North,355,2.0,3.0,54,0.00,,OVC090,0.01,VWS V14.01,2013-01-03 18:43:00,
2013-01-03 12:48:00,43.7,28.2,30.37,North,10,2.0,5.0,54,0.00,,OVC090,0.01,VWS V14.01,2013-01-03 18:48:00,
2013-01-03 12:50:00,44.0,28.9,30.38,North,355,2.0,4.0,55,0.00,,CLR,0.01,VWS V14.01,2013-01-03 18:50:00,
2013-01-03 12:53:00,43.7,28.6,30.37,North,9,0.0,3.0,55,0.00,,OVC090,0.01,VWS V14.01,2013-01-03 18:53:00,
2013-01-03 12:58:00,43.7,28.6,30.37,NNW,344,1.0,4.0,55,0.00,,OVC090,0.01,VWS V14.01,2013-01-03 18:58:00,
2013-01-03 13:00:00,43.7,28.6,30.37,North,9,3.0,5.0,55,0.00,,CLR,0.01,VWS V14.01,2013-01-03 19:00:00,
2013-01-03 13:03:00,43.8,28.2,30.37,North,355,0.0,4.0,54,0.00,,OVC070,0.01,VWS V14.01,2013-01-03 19:03:00,
2013-01-03 13:08:00,44.3,29.2,30.37,North,11,0.0,4.0,55,0.00,,OVC070,0.01,VWS V14.01,2013-01-03 19:08:00,
2013-01-03 13:10:00,43.7,28.6,30.37,NNW,344,3.0,4.0,55,0.00,,CLR,0.01,VWS V14.01,2013-01-03 19:10:00,
2013-01-03 13:13:00,44.6,29.0,30.37,NNW,344,2.0,4.0,54,0.00,,OVC070,0.01,VWS V14.01,2013-01-03 19:13:00,
2013-01-03 13:18:00,44.7,29.1,30.35,North,355,0.0,4.0,54,0.00,,OVC070,0.01,VWS V14.01,2013-01-03 19:18:00,
2013-01-03 13:20:00,44.3,29.2,30.37,North,9,2.0,4.0,55,0.00,,CLR,0.01,VWS V14.01,2013-01-03 19:20:00,
2013-01-03 13:30:00,44.7,29.1,30.35,North,355,1.0,4.0,54,0.00,,CLR,0.01,VWS V14.01,2013-01-03 19:30:00,
2013-01-03 13:40:00,44.6,27.6,30.35,NE,51,2.0,5.0,51,0.00,,CLR,0.01,VWS V14.01,2013-01-03 19:40:00,
2013-01-03 13:50:00,44.6,28.1,30.35,NNE,30,1.0,4.0,52,0.00,,CLR,0.01,VWS V14.01,2013-01-03 19:50:00,
2013-01-03 13:55:00,45.5,30.3,30.35,North,360,0.0,2.0,55,0.00,,OVC070,0.01,VWS V14.01,2013-01-03 19:55:00,
2013-01-03 14:00:00,45.6,29.5,30.35,North,360,2.0,3.0,53,0.00,,OVC070,0.01,VWS V14.01,2013-01-03 20:00:00,
2013-01-03 14:05:00,45.6,28.5,30.35,North,5,2.0,4.0,51,0.00,,OVC070,0.01,VWS V14.01,2013-01-03 20:05:00,
2013-01-03 14:10:00,45.6,29.5,30.35,NNE,13,1.0,4.0,53,0.00,,OVC070,0.01,VWS V14.01,2013-01-03 20:10:00,
2013-01-03 14:15:00,45.5,28.9,30.35,North,355,0.0,4.0,52,0.00,,OVC070,0.01,VWS V14.01,2013-01-03 20:15:00,
2013-01-03 14:20:00,45.3,28.2,30.35,NNE,15,0.0,4.0,51,0.00,,OVC070,0.01,VWS V14.01,2013-01-03 20:20:00,
2013-01-03 14:25:00,45.3,28.2,30.35,NNE,13,0.0,4.0,51,0.00,,OVC070,0.01,VWS V14.01,2013-01-03 20:25:00,
2013-01-03 14:30:00,45.3,28.2,30.35,NNE,13,0.0,4.0,51,0.00,,OVC070,0.01,VWS V14.01,2013-01-03 20:30:00,
2013-01-03 14:35:00,45.5,28.9,30.35,NNE,13,0.0,4.0,52,0.00,,OVC070,0.01,VWS V14.01,2013-01-03 20:35:00,
2013-01-03 14:40:00,45.5,28.9,30.35,NNW,331,3.0,4.0,52,0.00,,OVC070,0.01,VWS V14.01,2013-01-03 20:40:00,
2013-01-03 14:45:00,45.6,29.5,30.35,North,355,1.0,4.0,53,0.00,,OVC070,0.01,VWS V14.01,2013-01-03 20:45:00,
2013-01-03 14:50:00,45.7,30.0,30.34,North,355,1.0,3.0,54,0.00,,OVC070,0.01,VWS V14.01,2013-01-03 20:50:00,
2013-01-03 14:55:00,45.7,28.6,30.34,North,10,3.0,5.0,51,0.00,,OVC070,0.01,VWS V14.01,2013-01-03 20:55:00,
2013-01-03 15:00:00,45.9,28.3,30.34,North,5,2.0,3.0,50,0.00,,OVC070,0.01,VWS V14.01,2013-01-03 21:00:00,
2013-01-03 15:05:00,45.9,28.8,30.35,NNE,32,2.0,3.0,51,0.00,,OVC070,0.01,VWS V14.01,2013-01-03 21:05:00,
2013-01-03 15:10:00,46.0,28.9,30.35,NNE,19,1.0,3.0,51,0.00,,OVC070,0.01,VWS V14.01,2013-01-03 21:10:00,
2013-01-03 15:15:00,46.0,28.4,30.35,NNE,14,0.0,4.0,50,0.00,,OVC070,0.01,VWS V14.01,2013-01-03 21:15:00,
2013-01-03 15:20:00,46.2,29.1,30.34,North,355,2.0,2.0,51,0.00,,OVC070,0.01,VWS V14.01,2013-01-03 21:20:00,
2013-01-03 15:25:00,46.3,28.7,30.34,North,5,0.0,3.0,50,0.00,,OVC070,0.01,VWS V14.01,2013-01-03 21:25:00,
2013-01-03 15:30:00,46.3,29.6,30.34,NNE,18,0.0,2.0,52,0.00,,OVC070,0.01,VWS V14.01,2013-01-03 21:30:00,
2013-01-03 15:35:00,46.5,28.9,30.34,NNW,344,0.0,4.0,50,0.00,,OVC070,0.01,VWS V14.01,2013-01-03 21:35:00,
2013-01-03 15:40:00,46.3,28.7,30.34,NNE,19,2.0,2.0,50,0.00,,OVC070,0.01,VWS V14.01,2013-01-03 21:40:00,
2013-01-03 15:45:00,46.2,28.6,30.34,NNE,21,0.0,4.0,50,0.00,,OVC070,0.01,VWS V14.01,2013-01-03 21:45:00,
2013-01-03 15:50:00,46.2,30.0,30.35,NNE,21,1.0,2.0,53,0.00,,OVC070,0.01,VWS V14.01,2013-01-03 21:50:00,
2013-01-03 15:55:00,46.3,29.6,30.35,NNE,21,2.0,4.0,52,0.00,,OVC070,0.01,VWS V14.01,2013-01-03 21:55:00,
2013-01-03 16:00:00,46.3,29.6,30.35,NNE,20,2.0,3.0,52,0.00,,OVC070,0.01,VWS V14.01,2013-01-03 22:00:00,
2013-01-03 16:05:00,46.3,29.6,30.35,NNE,20,0.0,3.0,52,0.00,,OVC070,0.01,VWS V14.01,2013-01-03 22:05:00,
2013-01-03 16:10:00,46.5,30.3,30.35,NNE,30,1.0,2.0,53,0.00,,OVC070,0.01,VWS V14.01,2013-01-03 22:10:00,
2013-01-03 16:15:00,46.3,29.6,30.35,North,355,2.0,3.0,52,0.00,,OVC070,0.01,VWS V14.01,2013-01-03 22:15:00,
2013-01-03 16:20:00,46.3,29.6,30.35,North,355,1.0,3.0,52,0.00,,OVC070,0.01,VWS V14.01,2013-01-03 22:20:00,
2013-01-03 16:25:00,46.2,30.0,30.35,NNW,348,3.0,4.0,53,0.00,,OVC070,0.01,VWS V14.01,2013-01-03 22:25:00,
2013-01-03 16:30:00,46.2,31.8,30.35,NNW,329,3.0,3.0,57,0.00,,OVC070,0.01,VWS V14.01,2013-01-03 22:30:00,
2013-01-03 16:35:00,46.0,29.4,30.35,North,5,0.0,4.0,52,0.00,,OVC070,0.01,VWS V14.01,2013-01-03 22:35:00,
2013-01-03 16:40:00,46.0,29.4,30.35,North,11,2.0,4.0,52,0.00,,OVC070,0.01,VWS V14.01,2013-01-03 22:40:00,
2013-01-03 16:45:00,45.9,29.8,30.35,NNE,13,1.0,4.0,53,0.00,,OVC070,0.01,VWS V14.01,2013-01-03 22:45:00,
2013-01-03 16:50:00,45.7,30.5,30.35,NNE,13,1.0,3.0,55,0.00,,OVC070,0.01,VWS V14.01,2013-01-03 22:50:00,
2013-01-03 16:55:00,45.7,30.5,30.35,NNW,346,3.0,5.0,55,0.00,,OVC070,0.01,VWS V14.01,2013-01-03 22:55:00,
2013-01-03 17:00:00,45.6,30.4,30.35,North,9,2.0,4.0,55,0.00,,OVC070,0.01,VWS V14.01,2013-01-03 23:00:00,
2013-01-03 17:05:00,45.3,30.1,30.35,NNW,340,2.0,4.0,55,0.00,,OVC065,0.01,VWS V14.01,2013-01-03 23:05:00,
2013-01-03 17:10:00,45.3,30.1,30.35,NNE,13,1.0,5.0,55,0.00,,OVC065,0.01,VWS V14.01,2013-01-03 23:10:00,
2013-01-03 17:15:00,45.2,30.5,30.35,NNE,13,0.0,5.0,56,0.00,,OVC065,0.01,VWS V14.01,2013-01-03 23:15:00,
2013-01-03 17:20:00,45.0,30.7,30.36,NE,46,0.0,2.0,57,0.00,,OVC065,0.01,VWS V14.01,2013-01-03 23:20:00,
2013-01-03 17:25:00,45.0,31.1,30.36,NE,46,1.0,2.0,58,0.00,,OVC065,0.01,VWS V14.01,2013-01-03 23:25:00,
2013-01-03 17:30:00,44.9,30.2,30.36,North,360,2.0,4.0,56,0.00,,OVC065,0.01,VWS V14.01,2013-01-03 23:30:00,
2013-01-03 17:35:00,44.7,30.0,30.36,North,355,1.0,4.0,56,0.00,,OVC065,0.01,VWS V14.01,2013-01-03 23:35:00,
2013-01-03 17:40:00,44.7,30.4,30.36,North,355,1.0,3.0,57,0.00,,OVC065,0.01,VWS V14.01,2013-01-03 23:40:00,
2013-01-03 17:45:00,44.7,30.4,30.36,North,355,1.0,3.0,57,0.00,,OVC065,0.01,VWS V14.01,2013-01-03 23:45:00,
2013-01-03 17:50:00,44.7,30.4,30.36,NE,38,0.0,3.0,57,0.00,,OVC065,0.01,VWS V14.01,2013-01-03 23:50:00,
2013-01-03 17:55:00,44.7,30.4,30.36,NE,38,0.0,3.0,57,0.00,,OVC065,0.01,VWS V14.01,2013-01-03 23:55:00,
2013-01-03 18:00:00,44.6,30.8,30.36,NE,38,0.0,2.0,58,0.00,,OVC065,0.01,VWS V14.01,2013-01-04 00:00:00,
2013-01-03 18:05:00,44.6,30.8,30.37,NE,38,0.0,3.0,58,0.00,,OVC065,0.01,VWS V14.01,2013-01-04 00:05:00,
2013-01-03 18:10:00,44.6,31.2,30.37,NE,38,0.0,0.0,59,0.00,,OVC065,0.01,VWS V14.01,2013-01-04 00:10:00,
2013-01-03 18:15:00,44.4,30.6,30.37,NE,38,0.0,3.0,58,0.00,,OVC065,0.01,VWS V14.01,2013-01-04 00:15:00,
2013-01-03 18:20:00,44.4,30.1,30.37,NE,38,1.0,3.0,57,0.00,,OVC065,0.01,VWS V14.01,2013-01-04 00:20:00,
2013-01-03 18:25:00,44.4,29.3,30.37,NNE,32,0.0,4.0,55,0.00,,OVC065,0.01,VWS V14.01,2013-01-04 00:25:00,
2013-01-03 18:30:00,44.4,29.7,30.37,NNE,32,2.0,2.0,56,0.00,,OVC065,0.01,VWS V14.01,2013-01-04 00:30:00,
2013-01-03 18:35:00,44.4,29.7,30.38,NNE,32,0.0,2.0,56,0.00,,OVC065,0.01,VWS V14.01,2013-01-04 00:35:00,
2013-01-03 18:40:00,44.3,30.0,30.38,NNE,32,1.0,2.0,57,0.00,,OVC065,0.01,VWS V14.01,2013-01-04 00:40:00,
2013-01-03 18:45:00,44.3,30.5,30.38,NE,35,0.0,2.0,58,0.00,,OVC065,0.01,VWS V14.01,2013-01-04 00:45:00,
2013-01-03 18:50:00,44.1,30.3,30.38,NE,35,0.0,3.0,58,0.00,,OVC065,0.01,VWS V14.01,2013-01-04 00:50:00,
2013-01-03 18:55:00,44.1,29.9,30.38,NE,35,0.0,3.0,57,0.00,,OVC065,0.01,VWS V14.01,2013-01-04 00:55:00,
2013-01-03 19:00:00,44.1,29.9,30.38,NE,34,0.0,2.0,57,0.00,,OVC065,0.01,VWS V14.01,2013-01-04 01:00:00,
2013-01-03 19:05:00,44.1,30.3,30.38,NE,34,1.0,2.0,58,0.00,,OVC060,0.01,VWS V14.01,2013-01-04 01:05:00,
2013-01-03 19:10:00,44.1,29.9,30.38,NE,34,0.0,3.0,57,0.00,,OVC060,0.01,VWS V14.01,2013-01-04 01:10:00,
2013-01-03 19:15:00,44.0,29.8,30.38,NE,55,1.0,3.0,57,0.00,,OVC060,0.01,VWS V14.01,2013-01-04 01:15:00,
2013-01-03 19:20:00,44.0,29.8,30.38,NE,53,0.0,2.0,57,0.00,,OVC060,0.01,VWS V14.01,2013-01-04 01:20:00,
2013-01-03 19:25:00,44.0,29.8,30.38,NE,53,0.0,2.0,57,0.00,,OVC060,0.01,VWS V14.01,2013-01-04 01:25:00,
2013-01-03 19:30:00,44.0,30.2,30.38,NE,53,0.0,0.0,58,0.00,,OVC060,0.01,VWS V14.01,2013-01-04 01:30:00,
2013-01-03 19:35:00,43.8,30.0,30.39,NE,53,0.0,1.0,58,0.00,,OVC060,0.01,VWS V14.01,2013-01-04 01:35:00,
2013-01-03 19:40:00,43.8,30.0,30.39,NE,53,0.0,0.0,58,0.00,,OVC060,0.01,VWS V14.01,2013-01-04 01:40:00,
2013-01-03 19:45:00,43.8,30.4,30.39,NE,53,0.0,0.0,59,0.00,,OVC060,0.01,VWS V14.01,2013-01-04 01:45:00,
2013-01-03 19:50:00,43.7,30.7,30.39,NE,53,0.0,0.0,60,0.00,,OVC060,0.01,VWS V14.01,2013-01-04 01:50:00,
2013-01-03 19:55:00,43.7,30.3,30.39,NE,53,0.0,0.0,59,0.00,,OVC060,0.01,VWS V14.01,2013-01-04 01:55:00,
2013-01-03 20:00:00,43.7,30.7,30.39,NE,53,0.0,0.0,60,0.00,,OVC065,0.01,VWS V14.01,2013-01-04 02:00:00,
2013-01-03 20:05:00,43.6,30.6,30.39,NE,53,0.0,1.0,60,0.00,,OVC065,0.01,VWS V14.01,2013-01-04 02:05:00,
2013-01-03 20:10:00,43.6,30.6,30.39,NE,53,0.0,0.0,60,0.00,,OVC065,0.01,VWS V14.01,2013-01-04 02:10:00,
2013-01-03 20:15:00,43.6,30.6,30.39,NE,53,0.0,0.0,60,0.00,,OVC065,0.01,VWS V14.01,2013-01-04 02:15:00,
2013-01-03 20:20:00,43.4,30.5,30.38,NE,53,0.0,0.0,60,0.00,,OVC065,0.01,VWS V14.01,2013-01-04 02:20:00,
2013-01-03 20:25:00,43.4,30.9,30.38,NE,53,0.0,0.0,61,0.00,,OVC065,0.01,VWS V14.01,2013-01-04 02:25:00,
2013-01-03 20:30:00,43.4,30.9,30.38,NE,53,2.0,2.0,61,0.00,,OVC065,0.01,VWS V14.01,2013-01-04 02:30:00,
2013-01-03 20:35:00,43.4,30.5,30.38,NE,53,0.0,2.0,60,0.00,,OVC065,0.01,VWS V14.01,2013-01-04 02:35:00,
2013-01-03 20:40:00,43.3,30.4,30.38,NE,53,0.0,2.0,60,0.00,,OVC065,0.01,VWS V14.01,2013-01-04 02:40:00,
2013-01-03 20:45:00,43.3,30.4,30.38,NE,53,0.0,2.0,60,0.00,,OVC065,0.01,VWS V14.01,2013-01-04 02:45:00,
2013-01-03 20:50:00,43.3,30.4,30.37,NE,53,0.0,2.0,60,0.00,,OVC065,0.01,VWS V14.01,2013-01-04 02:50:00,
2013-01-03 20:55:00,43.3,30.8,30.37,NE,53,0.0,2.0,61,0.00,,OVC065,0.01,VWS V14.01,2013-01-04 02:55:00,
2013-01-03 21:00:00,43.3,30.4,30.37,NE,53,0.0,0.0,60,0.00,,OVC065,0.01,VWS V14.01,2013-01-04 03:00:00,
2013-01-03 21:05:00,43.3,30.4,30.37,NE,53,0.0,3.0,60,0.00,,OVC080,0.01,VWS V14.01,2013-01-04 03:05:00,
2013-01-03 21:10:00,43.1,30.2,30.37,NE,53,0.0,1.0,60,0.00,,OVC080,0.01,VWS V14.01,2013-01-04 03:10:00,
2013-01-03 21:15:00,43.1,30.6,30.37,NE,53,0.0,1.0,61,0.00,,OVC080,0.01,VWS V14.01,2013-01-04 03:15:00,
2013-01-03 21:20:00,43.3,30.8,30.38,NE,53,0.0,0.0,61,0.00,,OVC080,0.01,VWS V14.01,2013-01-04 03:20:00,
2013-01-03 21:25:00,43.1,30.6,30.38,NE,53,0.0,0.0,61,0.00,,OVC080,0.01,VWS V14.01,2013-01-04 03:25:00,
2013-01-03 21:30:00,43.1,31.0,30.38,NE,53,0.0,0.0,62,0.00,,OVC080,0.01,VWS V14.01,2013-01-04 03:30:00,
2013-01-03 21:35:00,43.1,31.0,30.38,NE,53,0.0,0.0,62,0.00,,OVC080,0.01,VWS V14.01,2013-01-04 03:35:00,
2013-01-03 21:40:00,43.1,30.6,30.38,NE,53,0.0,0.0,61,0.00,,OVC080,0.01,VWS V14.01,2013-01-04 03:40:00,
2013-01-03 21:45:00,43.1,30.6,30.38,NE,53,0.0,0.0,61,0.00,,OVC080,0.01,VWS V14.01,2013-01-04 03:45:00,
2013-01-03 21:50:00,43.3,31.2,30.39,NE,53,0.0,0.0,62,0.00,,OVC080,0.01,VWS V14.01,2013-01-04 03:50:00,
2013-01-03 21:55:00,43.1,31.4,30.39,NE,53,0.0,0.0,63,0.00,,OVC080,0.01,VWS V14.01,2013-01-04 03:55:00,
2013-01-03 22:00:00,43.1,31.4,30.39,NE,53,0.0,0.0,63,0.00,,OVC070,0.01,VWS V14.01,2013-01-04 04:00:00,
2013-01-03 22:05:00,43.1,31.8,30.39,NE,53,0.0,0.0,64,0.00,,OVC070,0.01,VWS V14.01,2013-01-04 04:05:00,
2013-01-03 22:10:00,43.1,31.4,30.39,NE,53,0.0,1.0,63,0.00,,OVC070,0.01,VWS V14.01,2013-01-04 04:10:00,
2013-01-03 22:15:00,43.0,30.9,30.39,NE,53,1.0,1.0,62,0.00,,OVC070,0.01,VWS V14.01,2013-01-04 04:15:00,
2013-01-03 22:20:00,43.0,31.3,30.38,NE,53,0.0,0.0,63,0.00,,OVC070,0.01,VWS V14.01,2013-01-04 04:20:00,
2013-01-03 22:25:00,43.0,31.3,30.38,NE,53,0.0,0.0,63,0.00,,OVC070,0.01,VWS V14.01,2013-01-04 04:25:00,
2013-01-03 22:30:00,43.0,31.3,30.38,NE,53,0.0,0.0,63,0.00,,OVC070,0.01,VWS V14.01,2013-01-04 04:30:00,
2013-01-03 22:35:00,42.8,31.5,30.37,NE,53,0.0,0.0,64,0.00,,OVC070,0.01,VWS V14.01,2013-01-04 04:35:00,
2013-01-03 22:40:00,42.8,31.1,30.37,NE,53,0.0,0.0,63,0.00,,OVC070,0.01,VWS V14.01,2013-01-04 04:40:00,
2013-01-03 22:45:00,42.8,31.5,30.37,NE,53,0.0,0.0,64,0.00,,OVC070,0.01,VWS V14.01,2013-01-04 04:45:00,
2013-01-03 22:50:00,42.8,31.9,30.37,NE,53,0.0,0.0,65,0.00,,OVC070,0.01,VWS V14.01,2013-01-04 04:50:00,
2013-01-03 22:55:00,42.8,31.5,30.37,NE,53,0.0,0.0,64,0.00,,OVC070,0.01,VWS V14.01,2013-01-04 04:55:00,
2013-01-03 23:00:00,42.8,31.9,30.37,NE,53,0.0,0.0,65,0.00,,OVC070,0.01,VWS V14.01,2013-01-04 05:00:00,
2013-01-03 23:02:00,42.8,31.5,30.37,NE,53,0.0,0.0,64,0.00,,OVC070,0.01,VWS V14.01,2013-01-04 05:02:00,
2013-01-03 23:03:00,42.8,31.5,30.38,NE,53,0.0,0.0,64,0.00,,OVC070,0.01,VWS V14.01,2013-01-04 05:03:00,
2013-01-03 23:08:00,42.8,31.9,30.38,NE,53,0.0,0.0,65,0.00,,OVC070,0.01,VWS V14.01,2013-01-04 05:08:00,
2013-01-03 23:10:00,42.8,31.9,30.37,NE,53,0.0,0.0,65,0.00,,CLR,0.01,VWS V14.01,2013-01-04 05:10:00,
2013-01-03 23:13:00,42.8,31.9,30.38,NE,53,0.0,0.0,65,0.00,,OVC070,0.01,VWS V14.01,2013-01-04 05:13:00,
2013-01-03 23:18:00,42.8,31.5,30.38,NE,53,0.0,0.0,64,0.00,,OVC070,0.01,VWS V14.01,2013-01-04 05:18:00,
2013-01-03 23:20:00,42.8,31.9,30.38,NE,53,0.0,0.0,65,0.00,,CLR,0.01,VWS V14.01,2013-01-04 05:20:00,
2013-01-03 23:23:00,42.8,31.5,30.38,NE,53,0.0,0.0,64,0.00,,OVC070,0.01,VWS V14.01,2013-01-04 05:23:00,
2013-01-03 23:28:00,42.8,31.5,30.38,NE,53,0.0,1.0,64,0.00,,OVC070,0.01,VWS V14.01,2013-01-04 05:28:00,
2013-01-03 23:30:00,42.8,31.5,30.38,NE,53,0.0,0.0,64,0.00,,CLR,0.01,VWS V14.01,2013-01-04 05:30:00,
2013-01-03 23:33:00,42.8,31.5,30.37,NE,53,0.0,1.0,64,0.00,,OVC070,0.01,VWS V14.01,2013-01-04 05:33:00,
2013-01-03 23:38:00,42.8,31.9,30.37,NE,53,0.0,1.0,65,0.00,,OVC070,0.01,VWS V14.01,2013-01-04 05:38:00,
2013-01-03 23:40:00,42.8,31.5,30.38,NE,53,0.0,1.0,64,0.00,,CLR,0.01,VWS V14.01,2013-01-04 05:40:00,
2013-01-03 23:43:00,42.8,31.5,30.37,NE,53,0.0,1.0,64,0.00,,OVC070,0.01,VWS V14.01,2013-01-04 05:43:00,
2013-01-03 23:48:00,42.8,31.9,30.37,NE,53,0.0,1.0,65,0.00,,OVC070,0.01,VWS V14.01,2013-01-04 05:48:00,
2013-01-03 23:50:00,42.8,31.9,30.37,NE,53,0.0,2.0,65,0.00,,CLR,0.01,VWS V14.01,2013-01-04 05:50:00,
2013-01-03 23:53:00,42.8,31.9,30.37,NE,53,0.0,0.0,65,0.00,,OVC070,0.00,VWS V14.01,2013-01-04 05:53:00,
2013-01-03 23:58:00,42.8,31.9,30.37,NE,53,0.0,1.0,65,0.00,,OVC070,0.00,VWS V14.01,2013-01-04 05:58:00,